Regional Weather Roundup
Issued by NWS Charleston, WV

Current Version | Previous Version | Text Only | Print | Product List | Glossary On
Versions: 1 2 3 4 5 6 7 8 9 10 11 12 13 14 15 16 17 18 19 20 21 22 23 24 25 26 27 28 29 30 31 32 33 34 35 36 37 38 39 40 41 42 43 44 45 46 47 48 49 50
000
ASUS41 KRLX 312110
RWRRLX
West Virginia Regional Weather Roundup
National Weather Service Charleston WV
400 PM EST SAT JAN 31 2015

Note: "fair" indicates few or no clouds below 12,000 feet with no
significant weather and/or obstructions to visibility.

WVZ003-312200-
Northern Panhandle of West Virginia

CITY           SKY/WX    TMP DP  RH WIND       PRES   REMARKS
WHEELING       SUNNY     29  15  56 W12       30.24F
$$

WVZ009-312200-
Northwest West Virginia

CITY           SKY/WX    TMP DP  RH WIND       PRES   REMARKS
PARKERSBURG    MOSUNNY   33  17  51 SW7       30.31F
$$

WVZ006-312200-
Western West Virginia

CITY           SKY/WX    TMP DP  RH WIND       PRES   REMARKS
HUNTINGTON     PTSUNNY   38  16  40 SW6       30.29F
$$

WVZ015-312200-
West Central West Virginia

CITY           SKY/WX    TMP DP  RH WIND       PRES   REMARKS
CHARLESTON     MOSUNNY   37  15  40 SW5       30.28F
$$

WVZ022-031-312200-
North Central West Virginia

CITY           SKY/WX    TMP DP  RH WIND       PRES   REMARKS
CLARKSBURG     SUNNY     30  16  56 S6        30.26F
MORGANTOWN     SUNNY     30  11  45 SW7       30.26S
$$

WVZ025-035-042-045-312200-
Southern West Virginia

CITY           SKY/WX    TMP DP  RH WIND       PRES   REMARKS
BECKLEY        SUNNY     34  10  37 W7        30.22S
LOGAN            N/A     37  12  35 CALM      30.26S
BLUEFIELD      SUNNY     38   6  26 W7        30.21F
LEWISBURG      SUNNY     38  -1  20 W13       30.22R
$$

WVZ047-312200-
Northern Mountains of West Virginia

CITY           SKY/WX    TMP DP  RH WIND       PRES   REMARKS
ELKINS         SUNNY     30   8  39 W7        30.23R
$$

WVZ052-312200-
Eastern Panhandle of West Virginia

CITY           SKY/WX    TMP DP  RH WIND       PRES   REMARKS
MARTINSBURG    SUNNY     34   8  33 W8        30.24S
PETERSBURG     SUNNY     37   1  21 W3        30.23S
$$


USA.gov is the U.S. government's official web portal to all federal, state and local government web resources and services.